Weather History for Albemarle, NC

Change the Weather History Date:

Thursday, February 21, 2013

  Actual Average (KHBI) Record (KHBI)
Temperature  
Mean Temperature 39 °F -  
Max Temperature 56 °F 58 °F 73 °F (1976)
Min Temperature 22 °F 34 °F 14 °F (1959)
Degree Days  
Heating Degree Days 26    
Moisture  
Dew Point 20 °F    
Average Humidity 48    
Maximum Humidity 90    
Minimum Humidity 21    
Precipitation  
Precipitation 0.00 in - - ()
Sea Level Pressure  
Sea Level Pressure 30.20 in    
Wind  
Wind Speed 2 mph (NE)    
Max Wind Speed 7 mph    
Max Gust Speed -    
Visibility 10 miles    
Events Rain    
Averages and records for this station are not official NWS values.
T = Trace of Precipitation, MM = Missing Value Source: NWS Daily Summary

Daily Weather History Graph

Daily Weather History Graph

Search for Another Location

Airport:

Trip Planner

Search our weather history database for the weather conditions in past years. The results will help you decide how hot, cold, wet, or windy it might be!

Date:

Astronomy

Feb. 21, 2013 Rise Set
Actual Time 6:59 AM EST 6:08 PM EST
Civil Twilight 6:34 AM EST 6:34 PM EST
Nautical Twilight 6:04 AM EST 7:04 PM EST
Astronomical Twilight 5:35 AM EST 7:33 PM EST
Moon 2:27 PM EST (2/21) 3:57 AM EST (2/21)
Length of Visible Light 12h 00m
Length of Day
11h 08m
Waxing Gibbous, 83% of the Moon is Illuminated
Feb 21
Waxing Gibbous
Feb 25
Full
Mar 4
Last Quarter
Mar 11
New
Mar 19
First Quarter

Hourly Weather History & Observations

Time (EST) Temp. Windchill Dew Point Humidity Pressure Visibility Wind Dir Wind Speed Gust Speed Precip Events Conditions
12:15 AM 34.9 °F - 14.0 °F 42% 30.15 in 10.0 mi North - - N/A   Clear
12:35 AM 35.2 °F - 14.0 °F 42% 30.15 in 10.0 mi North - - N/A   Clear
12:55 AM 34.3 °F 30.2 °F 13.8 °F 43% 30.15 in 10.0 mi NE 4.6 mph - N/A   Clear
1:15 AM 34.2 °F 31.2 °F 13.8 °F 43% 30.17 in 10.0 mi NNE 3.5 mph - N/A   Clear
1:35 AM 32.9 °F - 15.6 °F 49% 30.17 in 10.0 mi Calm Calm - N/A   Clear
1:55 AM 29.8 °F - 18.0 °F 61% 30.17 in 10.0 mi Calm Calm - N/A   Clear
2:15 AM 31.5 °F - 16.5 °F 54% 30.17 in 10.0 mi Calm Calm - N/A   Clear
2:35 AM 28.8 °F - 19.9 °F 70% 30.17 in 10.0 mi Calm Calm - N/A   Clear
2:55 AM 26.8 °F - 21.4 °F 80% 30.18 in 10.0 mi Calm Calm - N/A   Clear
3:15 AM 26.4 °F - 21.2 °F 81% 30.18 in 10.0 mi Calm Calm - N/A   Clear
3:35 AM 28.9 °F - 17.6 °F 63% 30.18 in 10.0 mi Calm Calm - N/A   Clear
3:55 AM 27.7 °F - 18.9 °F 69% 30.19 in 10.0 mi Calm Calm - N/A   Clear
4:15 AM 25.3 °F - 20.8 °F 83% 30.19 in 10.0 mi Calm Calm - N/A   Clear
4:35 AM 25.3 °F - 20.7 °F 82% 30.19 in 10.0 mi Calm Calm - N/A   Clear
4:55 AM 25.3 °F - 19.8 °F 79% 30.19 in 10.0 mi Calm Calm - N/A   Clear
5:15 AM 24.8 °F - 20.8 °F 85% 30.20 in 10.0 mi Calm Calm - N/A   Clear
5:35 AM 25.3 °F - 18.7 °F 76% 30.20 in 10.0 mi Calm Calm - N/A   Clear
5:55 AM 23.7 °F - 21.2 °F 90% 30.20 in 10.0 mi Calm Calm - N/A   Clear
6:15 AM 23.9 °F - 20.3 °F 86% 30.21 in 10.0 mi Calm Calm - N/A   Clear
6:35 AM 23.7 °F - 20.1 °F 86% 30.22 in 10.0 mi Calm Calm - N/A   Clear
6:55 AM 23.7 °F - 20.1 °F 86% 30.23 in 10.0 mi Calm Calm - N/A   Clear
7:15 AM 22.8 °F - 19.2 °F 86% 30.24 in 10.0 mi Calm Calm - N/A   Clear
7:35 AM 25.0 °F - 20.5 °F 83% 30.24 in 10.0 mi Calm Calm - N/A   Clear
7:55 AM 26.8 °F - 23.5 °F 88% 30.25 in 10.0 mi Calm Calm - N/A   Clear
8:15 AM 31.1 °F - 24.4 °F 76% 30.25 in 10.0 mi Calm Calm - N/A   Clear
8:35 AM 34.3 °F 28.4 °F 21.2 °F 59% 30.25 in 10.0 mi NE 6.9 mph - N/A   Clear
8:55 AM 36.3 °F 31.6 °F 18.9 °F 49% 30.26 in 10.0 mi ENE 5.8 mph - N/A   Clear
9:15 AM 37.8 °F 33.3 °F 17.6 °F 44% 30.26 in 10.0 mi ENE 5.8 mph - N/A   Clear
9:35 AM 39.4 °F 34.5 °F 16.7 °F 40% 30.26 in 10.0 mi NNE 6.9 mph - N/A   Clear
9:55 AM 40.3 °F - 16.2 °F 38% 30.25 in 10.0 mi Calm Calm - N/A   Clear
10:15 AM 41.7 °F 38.8 °F 16.9 °F 37% 30.25 in 10.0 mi NE 4.6 mph - N/A   Clear
10:35 AM 43.9 °F 41.3 °F 17.4 °F 35% 30.25 in 10.0 mi ENE 4.6 mph - N/A   Clear
10:55 AM 44.6 °F - 16.2 °F 32% 30.25 in 10.0 mi Calm Calm - N/A   Clear
11:15 AM 47.5 °F - 18.7 °F 32% 30.24 in 10.0 mi Calm Calm - N/A   Clear
11:35 AM 48.2 °F - 14.5 °F 26% 30.24 in 10.0 mi Calm Calm - N/A   Clear
11:55 AM 49.3 °F - 15.8 °F 26% 30.23 in 10.0 mi NW 3.5 mph - N/A   Clear
12:15 PM 51.1 °F - 16.9 °F 26% 30.22 in 10.0 mi Calm Calm - N/A   Clear
12:35 PM 51.6 °F - 15.4 °F 24% 30.20 in 10.0 mi North - - N/A   Clear
12:55 PM 52.5 °F - 17.1 °F 25% 30.19 in 10.0 mi North 3.5 mph - N/A   Clear
1:15 PM 52.7 °F - 14.7 °F 22% 30.18 in 10.0 mi Calm Calm - N/A   Clear
1:35 PM 52.9 °F - 15.1 °F 22% 30.17 in 10.0 mi Calm Calm - N/A   Clear
1:55 PM 54.0 °F - 16.7 °F 23% 30.16 in 10.0 mi WNW 4.6 mph - N/A   Clear
2:15 PM 54.7 °F - 17.4 °F 23% 30.16 in 10.0 mi Calm Calm - N/A   Clear
2:35 PM 55.0 °F - 18.5 °F 24% 30.14 in 10.0 mi South 4.6 mph - N/A   Clear
2:55 PM 55.0 °F - 17.2 °F 23% 30.14 in 10.0 mi Calm Calm - N/A   Clear
3:15 PM 56.3 °F - 18.1 °F 23% 30.14 in 10.0 mi Calm Calm - N/A   Clear
3:35 PM 55.9 °F - 17.8 °F 22% 30.15 in 10.0 mi East 4.6 mph - N/A   Clear
3:55 PM 55.6 °F - 16.5 °F 22% 30.16 in 10.0 mi ENE 3.5 mph - N/A   Clear
4:15 PM 55.4 °F - 17.1 °F 22% 30.16 in 10.0 mi Calm Calm - N/A   Clear
4:35 PM 55.4 °F - 16.2 °F 21% 30.17 in 10.0 mi Calm Calm - N/A   Clear
4:55 PM 55.4 °F - 17.2 °F 22% 30.16 in 10.0 mi Calm Calm - N/A   Clear
5:15 PM 54.5 °F - 17.8 °F 24% 30.15 in 10.0 mi East 3.5 mph - N/A   Clear
5:35 PM 52.7 °F - 20.1 °F 28% 30.16 in 10.0 mi Calm Calm - N/A   Clear
5:55 PM 51.3 °F - 24.1 °F 35% 30.16 in 10.0 mi Calm Calm - N/A   Clear
6:15 PM 48.0 °F - 28.9 °F 48% 30.16 in 10.0 mi Calm Calm - N/A   Clear
6:35 PM 48.2 °F - 25.0 °F 40% 30.18 in 10.0 mi Calm Calm - N/A   Clear
6:55 PM 46.6 °F - 27.9 °F 48% 30.19 in 10.0 mi Calm Calm - N/A   Clear
7:15 PM 45.3 °F - 31.1 °F 58% 30.19 in 10.0 mi Calm Calm - N/A   Clear
7:35 PM 45.1 °F - 30.2 °F 56% 30.19 in 10.0 mi Calm Calm - N/A   Clear
7:55 PM 44.1 °F - 30.9 °F 60% 30.19 in 10.0 mi Calm Calm - N/A   Clear
8:15 PM 43.3 °F - 31.6 °F 63% 30.18 in 10.0 mi Calm Calm - N/A   Clear
8:35 PM 43.0 °F 40.3 °F 31.6 °F 64% 30.18 in 10.0 mi NE 4.6 mph - N/A   Clear
8:55 PM 45.1 °F 42.8 °F 27.5 °F 50% 30.21 in 10.0 mi NE 4.6 mph - N/A   Clear
9:15 PM 46.9 °F - 22.6 °F 38% 30.21 in 10.0 mi ENE 4.6 mph - N/A   Clear
9:35 PM 47.5 °F - 20.8 °F 35% 30.22 in 10.0 mi ENE 4.6 mph - N/A   Clear
9:55 PM 46.8 °F - 20.8 °F 36% 30.23 in 10.0 mi East 4.6 mph - N/A   Clear
10:15 PM 47.3 °F - 20.8 °F 35% 30.24 in 10.0 mi NE 4.6 mph - N/A   Clear
10:35 PM 47.3 °F - 20.7 °F 35% 30.26 in 10.0 mi Calm Calm - N/A   Mostly Cloudy
10:55 PM 46.6 °F - 23.4 °F 40% 30.25 in 10.0 mi NE 4.6 mph - N/A   Overcast
11:15 PM 45.1 °F 42.0 °F 25.3 °F 46% 30.25 in 10.0 mi ENE 5.8 mph - N/A Rain Light Rain
11:35 PM 45.1 °F - 24.8 °F 45% 30.27 in 10.0 mi Calm Calm - N/A   Unknown
11:55 PM 44.6 °F 41.4 °F 25.5 °F 47% 30.27 in 10.0 mi ENE 5.8 mph - N/A Rain Light Rain